Overview Statistics Trail Chart Weather Telemetry Raw packets
 

This is the latest recevied weather packets stored in our database for station/object N4XHQ-13. If no packets are shown the sender has not sent any weather packets the latest 10 day(s).

<< 2 3 4 5 6 7 8 >>
Time Temp. Humidity Pressure Rain* Wind** Luminosity Snow
1788552117 38.33° C 36% 1014.1 hPa 0 mm - 715 W/m² -
1788551816 38.33° C 37% 1014.2 hPa 0 mm - 735 W/m² -
1788551516 37.78° C 38% 1014.2 hPa 0 mm - 742 W/m² -
1788551210 37.78° C 39% 1014.3 hPa 0 mm - 747 W/m² -
1788550910 37.78° C 39% 1014.1 hPa 0 mm - 781 W/m² -
1788550605 37.78° C 39% 1014.3 hPa 0 mm - 784 W/m² -
1788550302 37.22° C 39% 1014.5 hPa 0 mm - 808 W/m² -
1788550001 37.78° C 37% 1014.5 hPa 0 mm - 838 W/m² -
1788549697 37.78° C 39% 1014.5 hPa 0 mm - 832 W/m² -
1788549394 38.33° C 37% 1014.9 hPa 0 mm - 836 W/m² -
1788549089 37.22° C 40% 1014.7 hPa 0 mm - 848 W/m² -
1788548785 37.78° C 38% 1014.9 hPa 0 mm - 848 W/m² -
1788548481 37.22° C 40% 1014.8 hPa 0 mm - 865 W/m² -
1788548178 36.67° C 41% 1015 hPa 0 mm - 875 W/m² -
1788547872 36.67° C 41% 1015.1 hPa 0 mm - 163 W/m² -
1788547571 37.22° C 40% 1015.3 hPa 0 mm - 165 W/m² -
1788547267 37.22° C 41% 1015.1 hPa 0 mm - 270 W/m² -
1788546962 36.67° C 42% 1015.3 hPa 0 mm - 981 W/m² -
1788546657 36.67° C 42% 1015.3 hPa 0 mm - 972 W/m² -
1788546353 37.22° C 41% 1015.3 hPa 0 mm - 939 W/m² -
1788546052 37.22° C 40% 1015.6 hPa 0 mm - 944 W/m² -
1788545749 37.78° C 40% 1015.6 hPa 0 mm - 961 W/m² -
1788545449 37.78° C 39% 1015.9 hPa 0 mm - 1047 W/m² -
1788545149 37.22° C 40% 1015.8 hPa 0 mm - 1022 W/m² -
1788544844 36.67° C 42% 1015.9 hPa 0 mm - 987 W/m² -

* Rain latest hour (hover to see other rain measurements)
** Current wind speed in m/s (hover to see current wind gust speed)